Change the Weather History Date:

Saturday, March 30, 2013

  Actual Average (KMDW) Record (KMDW)
Temperature  
Mean Temperature 42 °F 44 °F  
Max Temperature 58 °F 52 °F 83 °F (1986)
Min Temperature 26 °F 36 °F 12 °F (1969)
Degree Days  
Heating Degree Days 23 21  
Month to date heating degree days 791  
Since 1 July heating degree days 5302  
Cooling Degree Days 0 0  
Month to date cooling degree days 0  
Year to date cooling degree days 0  
Moisture  
Dew Point 31 °F    
Average Humidity 64    
Maximum Humidity 94    
Minimum Humidity 36    
Precipitation  
Precipitation 0.00 in 0.10 in 1.36 in (1949)
Month to date precipitation 2.61  
Year to date precipitation 6.61  
Sea Level Pressure  
Sea Level Pressure 30.08 in    
Wind  
Wind Speed 5 mph (SSW)    
Max Wind Speed 21 mph    
Max Gust Speed 24 mph    
Visibility 9 miles    
Events      
T = Trace of Precipitation, MM = Missing Value Source: NWS Daily Summary

Daily Weather History Graph

Daily Weather History Graph

Search for Another Location

Airport or City:

Trip Planner

Search our weather history database for the weather conditions in past years. The results will help you decide how hot, cold, wet, or windy it might be!

Date:

Astronomy

Mar. 30, 2013 Rise Set
Actual Time 6:36 AM CDT 7:13 PM CDT
Civil Twilight 6:08 AM CDT 7:41 PM CDT
Nautical Twilight 5:35 AM CDT 8:14 PM CDT
Astronomical Twilight 5:01 AM CDT 8:48 PM CDT
Moon 11:22 PM CDT 8:28 AM CDT
Length of Visible Light 13h 33m
Length of Day
12h 37m
Waning Gibbous, 86% of the Moon is Illuminated
Mar 30
Waning Gibbous
Apr 2
Last Quarter
Apr 10
New
Apr 18
First Quarter
Apr 25
Full

Hourly Weather History & Observations

Time (CDT) Temp. Windchill Dew Point Humidity Pressure Visibility Wind Dir Wind Speed Gust Speed Precip Events Conditions
12:15 AM 34.3 °F - 28.4 °F 79% 30.24 in 10.0 mi Calm Calm - N/A   Clear
12:35 AM 33.8 °F - 28.6 °F 81% 30.24 in 10.0 mi Calm Calm - N/A   Clear
12:55 AM 33.3 °F - 28.6 °F 83% 30.24 in 10.0 mi Calm Calm - N/A   Clear
1:15 AM 32.5 °F - 28.0 °F 83% 30.25 in 10.0 mi Calm Calm - N/A   Clear
1:35 AM 28.8 °F - 26.1 °F 90% 30.24 in 7.0 mi Calm Calm - N/A   Clear
1:55 AM 26.6 °F - 23.0 °F 86% 30.24 in 7.0 mi Calm Calm - N/A   Clear
2:15 AM 27.0 °F - 24.4 °F 90% 30.24 in 7.0 mi Calm Calm - N/A   Clear
2:35 AM 27.5 °F - 25.0 °F 90% 30.24 in 7.0 mi Calm Calm - N/A   Clear
2:55 AM 27.5 °F - 24.8 °F 90% 30.23 in 7.0 mi Calm Calm - N/A   Clear
3:15 AM 27.3 °F - 24.6 °F 90% 30.22 in 7.0 mi Calm Calm - N/A   Clear
3:35 AM 27.1 °F - 24.6 °F 90% 30.21 in 5.0 mi Calm Calm - N/A   Clear
3:55 AM 26.6 °F - 24.8 °F 93% 30.20 in 5.0 mi Calm Calm - N/A   Clear
4:15 AM 28.8 °F - 26.8 °F 92% 30.20 in 7.0 mi Calm Calm - N/A   Clear
4:35 AM 28.8 °F - 26.1 °F 90% 30.20 in 7.0 mi Calm Calm - N/A   Clear
4:55 AM 27.7 °F - 25.5 °F 92% 30.21 in 7.0 mi Calm Calm - N/A   Clear
5:15 AM 27.1 °F - 25.0 °F 92% 30.21 in 7.0 mi Calm Calm - N/A   Clear
5:35 AM 26.1 °F - 23.9 °F 92% 30.22 in 7.0 mi Calm Calm - N/A   Clear
5:55 AM 26.2 °F - 24.4 °F 93% 30.21 in 7.0 mi Calm Calm - N/A   Clear
6:15 AM 27.1 °F - 25.5 °F 94% 30.21 in 7.0 mi Calm Calm - N/A   Clear
6:35 AM 27.1 °F - 25.2 °F 92% 30.20 in 7.0 mi Calm Calm - N/A   Clear
6:55 AM 27.7 °F - 25.3 °F 91% 30.19 in 7.0 mi Calm Calm - N/A   Clear
7:15 AM 26.6 °F - 24.4 °F 92% 30.19 in 7.0 mi Calm Calm - N/A   Clear
7:35 AM 28.0 °F - 25.5 °F 90% 30.19 in 7.0 mi Calm Calm - N/A   Clear
7:55 AM 30.9 °F - 27.0 °F 85% 30.20 in 7.0 mi Calm Calm - N/A   Clear
8:15 AM 33.1 °F - 27.3 °F 79% 30.19 in 10.0 mi Calm Calm - N/A   Clear
8:35 AM 36.9 °F 34.3 °F 25.7 °F 64% 30.18 in 10.0 mi SE 3.5 mph - N/A   Clear
8:55 AM 39.9 °F 36.7 °F 25.3 °F 56% 30.17 in 10.0 mi SSE 4.6 mph - N/A   Clear
9:15 AM 43.5 °F 38.9 °F 24.1 °F 46% 30.17 in 10.0 mi SSE 8.1 mph - N/A   Clear
9:35 AM 46.4 °F 42.4 °F 25.5 °F 44% 30.16 in 10.0 mi South 8.1 mph - N/A   Clear
9:55 AM 48.2 °F - 28.8 °F 47% 30.15 in 10.0 mi South 8.1 mph - N/A   Clear
10:15 AM 49.5 °F - 30.6 °F 48% 30.14 in 10.0 mi South 9.2 mph - N/A   Clear
10:35 AM 51.6 °F - 31.5 °F 46% 30.14 in 10.0 mi South 13.8 mph - N/A   Clear
10:55 AM 52.3 °F - 31.8 °F 46% 30.13 in 10.0 mi SSW 11.5 mph - N/A   Clear
11:15 AM 54.1 °F - 32.4 °F 44% 30.12 in 10.0 mi South 12.7 mph 16.1 mph N/A   Clear
11:35 AM 54.7 °F - 32.0 °F 42% 30.11 in 10.0 mi South 12.7 mph - N/A   Clear
11:55 AM 55.4 °F - 31.3 °F 40% 30.10 in 10.0 mi South 12.7 mph 17.3 mph N/A   Clear
12:15 PM 56.1 °F - 31.5 °F 39% 30.09 in 10.0 mi SW 13.8 mph - N/A   Clear
12:35 PM 55.9 °F - 31.1 °F 39% 30.08 in 10.0 mi SSW 12.7 mph 19.6 mph N/A   Clear
12:55 PM 57.2 °F - 30.2 °F 36% 30.08 in 10.0 mi SSW 15.0 mph - N/A   Clear
1:15 PM 56.5 °F - 31.6 °F 39% 30.06 in 10.0 mi SW 13.8 mph - N/A   Clear
1:35 PM 56.8 °F - 32.0 °F 39% 30.04 in 10.0 mi South 16.1 mph 20.7 mph N/A   Clear
1:55 PM 56.7 °F - 32.0 °F 39% 30.03 in 10.0 mi South 17.3 mph 20.7 mph N/A   Clear
2:15 PM 56.7 °F - 32.0 °F 39% 30.02 in 10.0 mi South 13.8 mph 18.4 mph N/A   Clear
2:35 PM 57.4 °F - 32.7 °F 39% 30.01 in 10.0 mi South 12.7 mph 18.4 mph N/A   Clear
2:55 PM 57.7 °F - 33.3 °F 40% 30.00 in 10.0 mi SW 13.8 mph 21.9 mph N/A   Clear
3:15 PM 57.4 °F - 33.4 °F 40% 29.99 in 10.0 mi SW 12.7 mph 19.6 mph N/A   Clear
3:35 PM 57.6 °F - 32.5 °F 39% 29.99 in 10.0 mi SSW 18.4 mph - N/A   Clear
3:55 PM 58.1 °F - 32.9 °F 39% 29.98 in 10.0 mi South 17.3 mph 21.9 mph N/A   Clear
4:15 PM 58.1 °F - 32.7 °F 38% 29.97 in 10.0 mi SSW 13.8 mph 21.9 mph N/A   Clear
4:35 PM 56.8 °F - 32.4 °F 40% 29.96 in 10.0 mi SSW 12.7 mph - N/A   Clear
4:55 PM 56.3 °F - 32.5 °F 41% 29.95 in 10.0 mi SSW 17.3 mph - N/A   Scattered Clouds
5:15 PM 56.3 °F - 32.9 °F 41% 29.95 in 10.0 mi SSW 16.1 mph 20.7 mph N/A   Mostly Cloudy
5:35 PM 55.8 °F - 34.3 °F 44% 29.95 in 10.0 mi SSW 20.7 mph - N/A   Overcast
5:55 PM 55.4 °F - 33.8 °F 44% 29.95 in 10.0 mi SW 17.3 mph 24.2 mph N/A   Overcast
6:15 PM 54.7 °F - 34.0 °F 46% 29.94 in 10.0 mi SSW 16.1 mph - N/A   Overcast
6:35 PM 54.0 °F - 34.0 °F 47% 29.94 in 10.0 mi SSW 15.0 mph 20.7 mph N/A   Mostly Cloudy
6:55 PM 53.2 °F - 34.9 °F 50% 29.94 in 10.0 mi SSW 13.8 mph - N/A   Mostly Cloudy
7:15 PM 52.3 °F - 35.2 °F 52% 29.94 in 10.0 mi SSW 12.7 mph - N/A   Overcast
7:35 PM 52.0 °F - 36.0 °F 54% 29.94 in 10.0 mi SW 11.5 mph - N/A   Overcast
7:55 PM 51.4 °F - 36.7 °F 57% 29.93 in 10.0 mi SSW 9.2 mph - N/A   Overcast
8:15 PM 50.5 °F - 37.4 °F 61% 29.93 in 10.0 mi SSW 6.9 mph - N/A   Overcast
8:35 PM 49.3 °F - 37.4 °F 64% 29.92 in 10.0 mi SSW 6.9 mph - N/A   Overcast
8:55 PM 49.3 °F - 37.9 °F 65% 29.92 in 10.0 mi SSW 5.8 mph - N/A   Overcast
9:15 PM 48.6 °F - 37.9 °F 67% 29.92 in 10.0 mi SSW 6.9 mph - N/A   Overcast
9:35 PM 48.6 °F - 37.9 °F 67% 29.91 in 10.0 mi SSW 9.2 mph - N/A   Overcast
9:55 PM 49.1 °F - 39.2 °F 69% 29.91 in 10.0 mi SSW 10.4 mph - N/A   Overcast
10:15 PM 48.4 °F - 38.7 °F 69% 29.90 in 10.0 mi South 8.1 mph - N/A   Overcast
10:35 PM 47.7 °F - 38.5 °F 70% 29.90 in 10.0 mi South 6.9 mph - N/A   Overcast
10:55 PM 47.8 °F - 38.5 °F 70% 29.89 in 10.0 mi South 6.9 mph - N/A   Overcast
11:15 PM 47.7 °F - 38.5 °F 70% 29.88 in 10.0 mi South 6.9 mph - N/A   Overcast
11:35 PM 47.7 °F - 38.7 °F 71% 29.88 in 10.0 mi SSW 8.1 mph - N/A   Overcast
11:55 PM 48.2 °F - 38.5 °F 69% 29.87 in 10.0 mi SSW 9.2 mph - N/A   Overcast